Home   Weather   Langen   Past weeks

Flag for Germany Past Weather in Langen, Hesse, Germany — Yesterday and Last 2 Weeks

48 °F

Rain showers. Broken clouds.

Feels Like: 45 °F
Forecast: 38 / 52 °F
Wind: 7 mph from Southwest

Location: Frankfurt-M-Flughafen Airport

Current Time: Oct 22, 2016 at 3:25:42 PM

Latest Report: Oct 22, 2016 at 2:50 PM

Visibility: N/A

Pressure: 29.92 "Hg

Humidity: 87%

Dew Point: 45 °F

Location of LangenLocation

Past Weather in Langen — Graph


Langen Temperature Yesterday

Maximum temperature yesterday: 50 °F (at 3:50 PM)
Minimum temperature yesterday: 41 °F (at 4:20 AM)
Average temperature yesterday: 45 °F

High & Low Weather Summary for the Past Weeks

High64 °F (Oct 16, 3:50 PM)100% (Oct 9, 3:50 AM)30.27 "Hg (Oct 9, 3:50 AM)
Low39 °F (Oct 13, 2:20 AM)51% (Oct 11, 1:50 PM)29.65 "Hg (Oct 14, 7:20 PM)
Average49 °F83%30.06 "Hg
* Reported Oct 7 2:20 PM — Oct 22 2:20 PM, Langen, Weather by CustomWeather, © 2016

Note: Actual official high and low records may vary slightly from our data, if they occured in-between our weather recording intervals... More about our weather records


Langen Weather History for the Previous 24 Hours

Scroll right to see more
Time TempWeatherWind HumidityBarometerVisibility
2:20 PM
Sat, Oct 22
50 °FSprinkles. Broken clouds.6 mph82%29.92 "HgN/A
1:50 PM50 °FScattered showers. Broken clouds.8 mph82%29.92 "HgN/A
1:20 PM50 °FBroken clouds.8 mph82%29.92 "HgN/A
12:50 PM50 °FBroken clouds.8 mph88%29.92 "HgN/A
12:20 PM50 °FBroken clouds.7 mph88%29.92 "HgN/A
11:50 AM48 °FBroken clouds.7 mph87%29.92 "Hg5 mi
11:20 AM46 °FPartly sunny.7 mph93%29.92 "Hg4 mi
10:50 AM46 °FBroken clouds.8 mph93%29.92 "Hg4 mi
10:20 AM46 °FFog.9 mph93%29.92 "Hg3 mi
9:50 AM45 °FFog.9 mph100%29.92 "Hg3 mi
9:20 AM45 °FFog.8 mph93%29.92 "Hg2 mi
8:50 AM45 °FFog.6 mph93%29.92 "Hg2 mi
8:20 AM45 °FFog.6 mph93%29.92 "Hg2 mi
7:50 AM43 °FFog.6 mph100%29.92 "Hg3 mi
7:20 AM43 °FFog.7 mph100%29.92 "Hg3 mi
6:50 AM43 °FFog.8 mph100%29.89 "Hg3 mi
6:20 AM43 °FPartly cloudy.8 mph100%29.92 "Hg4 mi
5:50 AM43 °FPartly cloudy.8 mph100%29.92 "Hg4 mi
5:20 AM43 °FLight rain. Partly cloudy.8 mph100%29.92 "Hg4 mi
4:50 AM43 °FPartly cloudy.7 mph100%29.92 "Hg4 mi
4:20 AM43 °FFog.7 mph100%29.92 "Hg3 mi
3:50 AM45 °FLight rain. Mostly cloudy.8 mph93%29.92 "Hg3 mi
3:20 AM45 °FLight rain. Mostly cloudy.9 mph93%29.92 "Hg3 mi
2:20 AM45 °FLight rain. Partly cloudy.8 mph93%29.95 "Hg3 mi
1:50 AM45 °FLight rain. Partly cloudy.7 mph93%29.95 "Hg4 mi
1:20 AM45 °FLight rain. Partly cloudy.5 mph93%29.95 "Hg4 mi
12:50 AM45 °FLight rain. Partly cloudy.5 mph93%29.95 "Hg4 mi
12:20 AM43 °FLight rain. Partly cloudy.5 mph100%29.95 "Hg4 mi
11:50 PM
Fri, Oct 21
43 °FPartly cloudy.5 mph100%29.98 "Hg5 mi
11:20 PM45 °FPartly cloudy.3 mph93%29.98 "HgN/A
10:50 PM43 °FPartly cloudy.6 mph93%29.98 "HgN/A
10:20 PM45 °FPartly cloudy.3 mph87%29.98 "HgN/A
9:50 PM43 °FPartly cloudy.5 mph93%29.98 "HgN/A
9:20 PM43 °FPassing clouds.6 mph93%29.98 "HgN/A
8:50 PM43 °FPassing clouds.6 mph93%29.98 "HgN/A
8:20 PM45 °FPassing clouds.3 mph87%29.98 "HgN/A
7:50 PM45 °FPassing clouds.6 mph87%29.98 "HgN/A
7:20 PM45 °FPassing clouds.6 mph93%29.98 "HgN/A
6:50 PM46 °FPassing clouds.7 mph82%29.98 "HgN/A
6:20 PM48 °FPartly sunny.7 mph76%29.98 "HgN/A
5:50 PM48 °FPartly sunny.8 mph76%29.98 "HgN/A
5:20 PM48 °FBroken clouds.6 mph82%29.98 "HgN/A
4:50 PM48 °FPartly sunny.7 mph76%29.98 "HgN/A
4:20 PM48 °FScattered showers. Broken clouds.7 mph82%29.98 "HgN/A
3:50 PM50 °FScattered showers. Broken clouds.9 mph76%29.98 "HgN/A
3:20 PM48 °FBroken clouds.8 mph76%29.98 "HgN/A
Weather by CustomWeather, © 2016

See weather overviewHow to use our weather pages